FENGYUN 1C DEB, 31744

Orbit data source: Space-Track

FENGYUN 1C DEB, 31744 is space debris in SSO originally from a launch on Mon, 10 May 1999 UTC launched from the Taiyaun Space Center, China (TSC). Fengyun 1C debris stems from the Chinese weather satellite Fengyun-1C, which was intentionally destroyed by a Chinese anti-satellite missile in 2007. This event dramatically increased the amount of space debris, with thousands of trackable fragments posing hazards to satellites and human spaceflight. The Fengyun 1C debris cloud has become a focal point in discussions about space sustainability and the need for international regulations to prevent the creation of new debris.

Loading next visibility...
Identifier
31744, 1999-025CET
Orbit
SSO
Country
Flag of CNCN / PRC
Related business
Manufacturer
Unknown
Mission
Spacecraft
Bus & Motor
Unknown
Mass
Unknown
Launch date (UTC)
1999-05-10 (27 years ago)
Launch vehicle
Unknown
Launch site
Taiyaun Space Center, China (TSC)
Object type
Payload
Rocket body
Debris
Shape & HBR
Unknown shape, 0.1 m
Radar Cross Section
Medium (>0.1 m² and <1 m²)

Expand to show TLE details & history
Last TLE update: 2 days ago

TLE from 2 days ago
0 FENGYUN 1C DEB
1 31744U 99025CET 26236.58984014  .00003176  00000-0  94453-3 0  9997
2 31744  99.3193   5.6445 0304165  43.9553 318.5386 14.20416821982289
Epoch: 2026-08-24T14:09Z
TLE epoch observation values (Epoch: 2026-08-24T14:09:22.188Z)
Latitude
0.00001°
Longitude
-179.56732°
Altitude
665.665 km
Speed
7.608 km/s
True Right ascension
00h 22m 34s
True Declination
0° 00' 00"
Sunlit
Object was in full shadow at epoch
Visualization orbit readout
Latitude
Unknown
Longitude
Unknown
Altitude
Unknown
Speed
Unknown
Apparent Right ascension
Unknown
Apparent Declination
Unknown
Sunlit
N/A
Visualization observer readout
Local Sidereal Time
08:06:47
Azimuth
Unknown
Elevation
Unknown
Doppler factor
Unknown
Orbital elements
Apogee altitude
1,040.104 km
Perigee altitude
602.151 km
Semi-major axis
7,199.265 km
Eccentricity
0.03042
Inclination
99.3193°
RAAN
5.6445°
Arg. of periapsis
43.9553°
True anomaly
316.1639°
Mean anomaly
318.5386°
Eccentric anomaly
317.35804°
Mean motion
3.55313 °/min
Orbital period
101.32 mins
BSTAR
0.00094453
Loading maneuver chart data...
Computing Atmospheric mass density...

Documentation

Showing up to 5 results
|